RH
57 55 54 55 57 58 58 59 55 55 56 56 56 54 52 40 28 20 17 13 12 14 15 16 16 16 16 17 16 15 18 21 20
59 59 55 54 49 52 54 59 62 62 59 57 54 53 54 57 51 38 28 20 16 15 15 16 17 18 19 20 20 20 20 22 24
45 46 50 60 69 54 37 34 51 66 69 66 62 58 53 52 57 60 52 39 26 19 17 17 17 19 21 22 22 21 25 27 26
22 23 26 30 31 41 63 42 42 50 70 76 74 69 65 61 55 58 64 62 53 39 29 19 20 20 21 23 24 24 24 27 30
14 14 14 14 14 14 14 27 51 66 77 76 79 77 72 73 71 61 62 66 67 59 46 37 21 20 22 24 24 25 26 28 30
12 11 11 11 11 11 11 12 16 45 51 55 72 74 68 62 72 76 70 64 66 70 65 68 67 28 20 19 21 23 25 27 30
6 6 6 6 6 6 7 8 8 10 13 27 60 55 50 45 54 70 79 75 71 70 72 70 73 74 37 22 19 19 21 24 28
8 10 10 11 12 12 13 12 11 10 9 9 12 17 14 32 52 72 68 74 80 78 76 76 76 77 78 46 25 20 19 21 23
10 11 11 12 12 13 14 15 16 17 16 14 12 10 10 10 13 47 63 70 82 79 88 83 79 77 78 76 46 30 22 21 23
10 10 11 13 14 15 15 16 16 16 17 17 17 17 15 14 11 10 16 35 73 75 77 90 90 82 79 80 75 51 34 26 24
11 13 15 16 16 15 15 14 12 12 11 12 13 14 14 14 14 14 12 11 20 56 74 74 82 93 88 84 82 81 60 39 31
15 16 14 11 9 8 8 8 8 8 8 8 7 8 9 9 10 11 12 12 11 16 36 76 87 96 95 92 93 90 88 70 53
14 10 8 9 11 15 18 20 22 23 22 18 18 20 22 23 24 22 19 15 12 11 12 15 78 89 96 98 97 98 93 93 82
9 14 18 22 24 25 24 25 26 28 28 26 18 15 15 16 17 18 19 24 30 32 20 12 15 100 86 96 96 93 84 90 95
20 21 23 24 23 22 23 26 26 15 12 12 12 12 13 12 13 14 16 17 20 23 32 39 20 18 72 96 89 97 100 100 87
23 23 24 16 18 22 16 14 13 12 10 10 12 12 10 10 11 11 12 15 18 22 28 33 41 39 15 46 95 97 98 100 91
23 25 16 15 13 12 12 12 12 12 11 10 10 10 10 12 14 16 20 26 32 39 40 47 54 60 50 21 33 87 98 92 97
18 19 16 14 14 13 13 13 14 14 14 13 12 10 9 10 14 24 32 33 47 61 62 76 78 75 71 62 32 21 55 88 98
22 19 17 16 15 14 14 16 16 17 17 17 16 13 12 11 11 17 24 41 62 78 87 100 95 89 74 69 69 45 34 66 85
21 18 17 15 14 15 16 16 17 18 18 18 17 18 18 16 14 14 24 48 71 78 94 97 91 94 81 86 82 52 40 72 88
Wind_Speed
9 10 10 11 11 11 11 12 12 12 11 10 10 9 8 7 7 8 8 8 8 8 9 9 9 8 8 8 8 8 8 7 7
13 13 14 15 15 15 15 15 15 15 15 14 13 13 11 10 8 8 9 8 8 8 8 9 8 8 8 7 7 7 7 6 6
17 17 17 16 17 17 18 18 18 17 17 16 16 15 14 14 13 12 12 12 11 11 9 9 9 8 8 7 7 7 6 6 6
18 19 19 20 20 20 19 19 19 19 19 19 19 19 18 17 16 15 13 12 12 13 13 12 12 11 9 8 7 7 6 6 6
18 18 19 20 21 22 22 21 20 20 20 21 22 22 21 21 20 18 17 16 14 13 14 14 14 15 13 11 10 8 7 7 6
20 21 21 22 22 23 24 24 24 24 24 24 26 26 25 25 23 22 21 19 18 17 15 16 16 15 16 16 14 12 10 9 8
22 24 25 25 25 25 26 27 28 29 29 29 27 29 30 30 28 26 26 25 23 21 19 19 18 18 17 17 16 16 15 13 10
25 26 27 28 28 29 29 29 30 31 32 32 33 34 33 32 31 29 29 30 28 26 24 23 22 21 19 19 18 17 17 16 14
29 31 32 33 33 34 34 34 34 34 35 35 35 35 36 36 35 35 35 33 32 31 29 27 27 25 23 21 20 19 18 17 16
33 35 36 38 38 38 38 38 38 37 38 38 39 38 39 39 38 38 38 37 37 36 35 32 31 30 28 26 23 22 20 19 18
38 39 40 41 40 40 39 38 37 36 37 36 37 38 39 40 41 41 40 41 41 41 40 37 35 35 33 30 28 26 24 22 20
41 40 38 37 37 36 36 36 36 35 35 36 36 37 39 40 41 43 43 43 44 45 45 42 40 38 37 35 32 31 29 27 24
39 37 36 35 35 35 34 33 33 33 33 33 34 35 36 37 38 41 42 44 45 47 49 49 47 44 39 41 36 35 33 32 30
35 34 34 33 33 33 31 31 30 30 30 30 29 29 29 31 32 34 37 41 45 47 49 51 51 46 47 45 44 44 36 38 33
33 33 32 31 31 30 27 25 24 23 22 23 24 24 25 27 29 30 32 34 39 44 48 49 51 53 52 48 46 46 48 34 36
32 29 26 23 19 16 13 14 16 21 23 23 22 24 27 26 26 28 32 34 36 40 42 44 48 50 51 53 49 47 46 38 46
26 20 17 15 12 11 11 12 15 20 23 24 23 21 20 20 24 29 32 33 36 38 38 39 39 41 47 50 54 54 43 47 51
16 13 11 10 10 12 13 14 14 17 21 24 24 26 26 20 15 23 30 33 35 33 33 32 32 33 34 39 45 47 50 41 37
11 9 8 9 10 12 14 14 15 17 19 22 24 26 28 31 24 17 24 26 28 27 27 26 28 26 26 29 35 37 39 39 32
8 7 7 9 10 12 13 14 15 16 18 19 21 24 27 30 30 28 20 20 24 23 25 25 25 23 20 19 23 28 32 32 26
Wind_Direction
304 306 305 306 305 305 307 310 314 316 319 323 328 331 339 348 345 336 336 334 330 326 321 322 325 328 334 339 342 344 343 341 343
292 294 296 295 294 296 299 301 302 304 307 310 311 312 314 320 325 323 320 323 318 312 311 310 312 315 321 328 331 334 334 332 327
286 287 288 290 296 292 292 290 288 292 295 297 297 300 302 302 305 310 315 318 318 310 299 295 295 296 301 310 315 320 322 320 318
284 285 286 287 287 288 290 289 287 286 288 290 292 294 296 297 296 296 299 302 306 307 304 301 293 287 283 283 286 294 302 305 307
291 291 291 292 292 293 295 292 288 284 280 281 283 283 286 288 290 289 289 289 291 292 296 297 296 293 286 278 275 275 278 281 286
297 296 295 292 291 290 289 288 285 280 279 276 275 279 281 280 280 281 281 280 280 282 284 286 281 286 288 287 283 276 270 270 273
300 299 298 295 293 290 289 286 284 283 280 278 278 276 275 276 275 275 276 276 274 273 272 273 274 276 280 279 280 280 278 273 269
299 297 295 294 293 292 289 286 284 283 281 280 279 279 280 275 273 270 272 273 273 271 269 266 265 268 268 272 272 270 271 272 271
298 297 296 295 293 291 290 288 286 284 282 281 279 278 278 276 275 272 270 268 268 264 263 263 263 262 262 260 262 264 263 263 265
298 297 296 294 293 292 290 288 286 284 282 281 280 279 278 277 274 272 270 269 267 268 264 259 259 258 257 256 255 256 257 256 255
298 296 296 295 293 292 290 289 287 286 284 282 280 279 278 275 274 271 267 265 264 264 266 267 264 257 256 254 253 251 249 250 249
297 296 295 294 292 291 290 288 287 285 283 283 280 278 277 276 275 273 271 267 263 261 259 258 256 259 256 253 250 249 247 243 241
298 298 296 294 293 292 292 292 292 291 287 285 286 285 283 281 278 276 275 272 267 263 261 259 255 253 253 253 246 249 245 243 241
298 298 296 295 294 294 293 293 294 293 292 292 292 291 292 290 285 279 274 272 269 266 261 257 256 250 250 249 251 245 242 245 243
299 297 295 296 295 293 293 294 297 299 300 300 300 300 299 298 298 294 289 282 274 269 265 260 256 252 247 249 248 250 241 252 239
300 297 297 303 303 302 305 310 311 310 309 309 309 309 303 305 301 296 287 283 283 279 273 268 262 256 253 247 249 255 250 243 251
299 296 301 306 310 314 319 318 319 316 315 315 314 313 311 317 311 299 292 292 288 281 279 273 267 262 255 250 247 247 260 248 254
295 298 304 309 316 317 318 323 324 319 324 326 327 328 327 329 313 298 296 298 289 286 279 277 276 269 261 256 250 248 249 258 272
293 297 303 313 316 317 317 319 321 328 331 335 335 335 334 333 335 323 315 309 294 284 282 277 287 284 268 262 257 248 243 250 261
293 300 312 318 317 311 312 318 329 330 334 338 339 340 340 337 337 336 348 332 307 287 285 280 277 285 270 263 260 247 239 247 257